Station OBLA1 - 8737048 - Mobile State Docks, AL Image indicating link to RSS feed of recent meteorological observations for station OBLA1


Conditions at OBLA1 as of
(10:48 am CDT)
1548 GMT on 07/13/2024:
     

Click on the graph icon in the table below to see a time series plot of the last five days of that observation.

5-day plot - Atmospheric Pressure Atmospheric Pressure (PRES):30.22 in
5-day plot - Air Temperature Air Temperature (ATMP): 92.7 °F
5-day plot - Water Temperature Water Temperature (WTMP): 87.4 °F
NOS Water Level Observation Network Water Level
Previous observations
TIME
(CDT)
5-day plot - Wind Direction
WDIR
 
5-day plot - Wind Speed
WSPD
kts
5-day plot - Wind Gust
GST
kts
5-day plot - Wave Height
WVHT
ft
5-day plot - Dominant Wave Period
DPD
sec
5-day plot - Average Wave Period
APD
sec
5-day plot - Mean Wave Direction
MWD
 
5-day plot - Atmospheric Pressure
PRES
in
5-day plot - Pressure Tendency
PTDY
in
5-day plot - Air Temperature
ATMP
°F
5-day plot - Water Temperature
WTMP
°F
5-day plot - Dew Point
DEWP
°F
5-day plot - Salinity
SAL
psu
5-day plot - Visibility
VIS
nmi
5-day plot - Tide (above MLLW)
TIDE
ft
2024-07-13 10:42 am-------30.22- 91.4 87.3----
2024-07-13 10:36 am-------30.22- 91.8 87.3----
2024-07-13 10:30 am-------30.22- 90.3 87.3----
2024-07-13 10:24 am-------30.22- 90.3 87.3----
2024-07-13 10:18 am-------30.22- 90.0 87.3----
2024-07-13 10:12 am-------30.22- 89.8 87.1----
2024-07-13 10:06 am-------30.22- 88.5 86.9----
2024-07-13 10:00 am-------30.22+0.03 89.1 86.9----
2024-07-13 09:54 am-------30.22- 90.5 86.9----
2024-07-13 09:48 am-------30.22- 89.4 86.9----
2024-07-13 09:42 am-------30.22- 89.6 86.9----
2024-07-13 09:36 am-------30.22- 88.9 86.9----
2024-07-13 09:30 am-------30.22- 88.7 86.9----
2024-07-13 09:24 am-------30.22- 88.3 86.9----
2024-07-13 09:18 am-------30.22- 87.8 86.9----
2024-07-13 09:12 am-------30.22- 87.3 86.9----
2024-07-13 09:06 am-------30.22- 86.5 86.9----
2024-07-13 09:00 am-------30.22+0.05 84.6 86.7----
2024-07-13 08:54 am-------30.22- 83.5 86.7----
2024-07-13 08:48 am-------30.22- 82.6 86.7----
2024-07-13 08:42 am-------30.22- 82.0 86.7----
2024-07-13 08:36 am-------30.21- 82.2 86.5----
2024-07-13 08:30 am-------30.21- 82.4 86.7----
2024-07-13 08:24 am-------30.21- 82.8 86.9----
2024-07-13 08:18 am-------30.21- 82.8 87.1----
2024-07-13 08:12 am-------30.21- 82.9 87.1----
2024-07-13 08:06 am-------30.21- 82.9 87.1----
2024-07-13 08:00 am-------30.20+0.05 82.9 87.1----
2024-07-13 07:54 am-------30.20- 83.3 87.1----
2024-07-13 07:48 am-------30.20- 83.8 87.1----
2024-07-13 07:42 am-------30.20- 85.1 87.1----
2024-07-13 07:36 am-------30.19- 86.2 87.1----
2024-07-13 07:30 am-------30.19- 86.2 87.1----
2024-07-13 07:24 am-------30.19- 85.6 87.1----
2024-07-13 07:18 am-------30.19- 85.5 87.1----
2024-07-13 07:12 am-------30.19- 84.2 87.1----
2024-07-13 07:06 am-------30.19- 83.8 87.1----
2024-07-13 07:00 am-------30.19+0.06 82.9 87.1----
2024-07-13 06:54 am-------30.19- 81.3 87.1----
2024-07-13 06:48 am-------30.19-- 87.3----
2024-07-13 06:42 am-------30.19-- 87.3----
2024-07-13 06:36 am-------30.18-- 87.4----
2024-07-13 06:30 am-------30.18-- 87.4----
2024-07-13 06:24 am-------30.18-- 87.4----
2024-07-13 06:18 am-------30.18- 78.3 87.4----
2024-07-13 06:12 am-------30.17- 78.4 87.4----
2024-07-13 06:06 am-------30.17- 78.3 87.4----
2024-07-13 06:00 am-------30.17- 77.9 87.4----
2024-07-13 05:54 am-------30.17- 78.1 87.4----
2024-07-13 05:48 am-------30.17- 78.1 87.4----
2024-07-13 05:42 am-------30.16- 78.3 87.4----
2024-07-13 05:36 am-------30.16- 78.3 87.3----
2024-07-13 05:30 am-------30.16- 78.4 87.3----
2024-07-13 05:24 am-------30.15- 78.6 87.3----
2024-07-13 05:18 am-------30.15- 78.6 87.3----
2024-07-13 05:12 am-------30.15- 78.8 87.3----
2024-07-13 05:06 am-------30.15- 79.0 87.3----
2024-07-13 05:00 am-------30.15+0.03- 87.4----
2024-07-13 04:54 am-------30.15-- 87.4----
2024-07-13 04:48 am-------30.15-- 87.3----
2024-07-13 04:42 am-------30.15-- 87.3----
2024-07-13 04:36 am-------30.15-- 87.3----
2024-07-13 04:30 am-------30.15- 79.2 87.3----
2024-07-13 04:24 am-------30.15- 78.8 87.3----
2024-07-13 04:18 am-------30.14- 79.0 87.3----
2024-07-13 04:12 am-------30.14- 79.0 87.3----
2024-07-13 04:06 am-------30.14- 79.2 87.3----
2024-07-13 04:00 am-------30.14+0.00 79.2 87.3----
2024-07-13 03:54 am-------30.14- 79.2 87.3----
2024-07-13 03:48 am-------30.14- 79.2 87.4----
2024-07-13 03:42 am-------30.14- 79.2 87.4----
2024-07-13 03:36 am-------30.13- 79.5 87.4----
2024-07-13 03:30 am-------30.14- 79.2 87.4----
2024-07-13 03:24 am-------30.13- 78.8 87.4----
2024-07-13 03:18 am-------30.13- 78.3 87.4----
2024-07-13 03:12 am-------30.13- 78.4 87.4----
2024-07-13 03:06 am-------30.13- 78.4 87.4----
2024-07-13 03:00 am--------- 78.4 87.4----
2024-07-13 02:54 am--------- 78.3 87.4----
2024-07-13 02:48 am-------30.13- 78.1 87.4----
2024-07-13 02:42 am-------30.12- 77.9 87.4----
2024-07-13 02:36 am-------30.12- 77.9 87.4----
2024-07-13 02:30 am-------30.12- 77.9 87.4----
2024-07-13 02:24 am-------30.12- 77.9 87.4----
2024-07-13 02:18 am-------30.12- 77.9 87.4----
2024-07-13 02:12 am-------30.12- 77.9 87.4----
2024-07-13 02:06 am-------30.12- 77.5 87.4----
2024-07-13 02:00 am-------30.12-0.02 77.5 87.4----
2024-07-13 01:54 am-------30.12- 77.5 87.6----
2024-07-13 01:48 am-------30.13- 77.5 87.6----
2024-07-13 01:42 am-------30.13- 77.7 87.6----
2024-07-13 01:36 am-------30.13- 77.9 87.6----
2024-07-13 01:30 am-------30.13- 77.9 87.6----
2024-07-13 01:24 am-------30.13- 77.7 87.8----
2024-07-13 01:18 am-------30.14- 77.7 87.8----
2024-07-13 01:12 am-------30.14- 77.7 87.8----
2024-07-13 01:06 am-------30.14- 78.4 87.8----
2024-07-13 01:00 am-------30.14-0.01 77.9 87.8----
2024-07-13 12:54 am-------30.14- 78.3 87.8----
2024-07-13 12:48 am-------30.14- 77.9 87.8----
2024-07-13 12:42 am-------30.14- 78.3 87.8----
2024-07-13 12:36 am-------30.14- 78.8 87.8----
2024-07-13 12:30 am-------30.14- 78.8 87.8----
2024-07-13 12:24 am-------30.14- 79.0 87.8----
2024-07-13 12:18 am-------30.15- 79.0 87.8----
2024-07-13 12:12 am-------30.15- 79.2 88.0----
2024-07-13 12:06 am-------30.15- 79.2 88.0----
2024-07-13 12:00 am-------30.15+0.00 79.2 88.0----
2024-07-12 11:54 pm-------30.14- 79.2 87.8----
2024-07-12 11:48 pm-------30.15- 79.0 87.8----
2024-07-12 11:42 pm-------30.15- 78.8 87.8----
2024-07-12 11:36 pm-------30.15- 78.8 87.8----
2024-07-12 11:30 pm-------30.15- 79.0 87.8----
2024-07-12 11:24 pm-------30.15- 79.2 87.8----
2024-07-12 11:18 pm-------30.15- 79.3 87.8----
2024-07-12 11:12 pm-------30.15- 79.3 87.8----
2024-07-12 11:06 pm-------30.15- 79.5 88.0----
2024-07-12 11:00 pm-------30.15+0.01 80.1 87.8----
2024-07-12 10:54 pm-------30.14- 79.7 87.8----
2024-07-12 10:48 pm-------30.14- 79.7 87.8----
2024-07-12 10:42 pm-------30.15- 80.2 87.8----
2024-07-12 10:36 pm-------30.15- 80.2 87.8----
2024-07-12 10:30 pm-------30.15- 80.4 87.8----
2024-07-12 10:24 pm-------30.15- 80.4 87.8----
2024-07-12 10:18 pm-------30.14- 80.4 87.8----
2024-07-12 10:12 pm-------30.15- 80.6 87.8----
2024-07-12 10:06 pm-------30.15- 80.8 87.6----
2024-07-12 10:00 pm-------30.15+0.02 80.2 88.2----
2024-07-12 09:54 pm-------30.15- 80.1 88.2----
2024-07-12 09:48 pm-------30.14- 80.1 88.2----
2024-07-12 09:42 pm-------30.15- 79.9 88.2----
2024-07-12 09:36 pm-------30.14- 79.5 88.2----
2024-07-12 09:30 pm-------30.14- 79.3 88.2----
2024-07-12 09:24 pm-------30.14- 79.5 88.2----
2024-07-12 09:18 pm-------30.14- 79.3 88.2----
2024-07-12 09:12 pm-------30.14- 79.9 88.2----
2024-07-12 09:06 pm-------30.14- 79.5 88.2----
2024-07-12 09:00 pm-------30.14+0.06 79.5 88.0----
2024-07-12 08:54 pm-------30.14- 79.7 88.2----
2024-07-12 08:48 pm-------30.14- 79.5 88.3----
2024-07-12 08:42 pm-------30.13- 79.7 88.3----
2024-07-12 08:36 pm-------30.13- 79.7 88.3----
2024-07-12 08:30 pm-------30.13- 80.1 88.3----
2024-07-12 08:24 pm-------30.13- 79.9 88.3----
2024-07-12 08:18 pm-------30.13- 79.2 88.3----
2024-07-12 08:12 pm-------30.14- 79.0 88.3----
2024-07-12 08:06 pm-------30.14- 79.0 88.3----
2024-07-12 08:00 pm-------30.13+0.05 79.3 88.3----
2024-07-12 07:54 pm-------30.13- 79.5 88.3----
2024-07-12 07:48 pm-------30.12- 79.5 88.3----
2024-07-12 07:42 pm-------30.12- 79.5 88.5----
2024-07-12 07:36 pm-------30.12- 79.2 88.5----
2024-07-12 07:30 pm-------30.13- 79.3 88.5----
2024-07-12 07:24 pm-------30.12- 79.7 88.5----
2024-07-12 07:18 pm-------30.13- 81.7 88.5----
2024-07-12 07:12 pm-------30.12- 82.8 88.5----
2024-07-12 07:06 pm-------30.12- 82.8 88.3----
2024-07-12 07:00 pm-------30.12+0.04 83.3 88.3----
2024-07-12 06:54 pm-------30.12- 84.2 88.3----
2024-07-12 06:48 pm-------30.12- 85.6 88.3----
2024-07-12 06:42 pm-------30.11- 88.2 88.3----
2024-07-12 06:36 pm-------30.10- 87.8 88.3----
2024-07-12 06:30 pm-------30.10- 87.4 88.3----
2024-07-12 06:24 pm-------30.10- 87.6 88.3----
2024-07-12 06:18 pm-------30.09- 87.4 88.2----
2024-07-12 06:12 pm-------30.09- 87.4 88.2----
2024-07-12 06:06 pm-------30.09- 87.4 88.2----
2024-07-12 06:00 pm-------30.09-0.01 87.3 88.2----
2024-07-12 05:54 pm-------30.09- 87.3 88.0----
2024-07-12 05:48 pm-------30.09-- 88.0----
2024-07-12 05:42 pm-------30.09-- 88.0----
2024-07-12 05:36 pm-------30.08-- 87.8----
2024-07-12 05:30 pm-------30.08- 87.6 87.8----
2024-07-12 05:24 pm-------30.08- 87.4 88.0----
2024-07-12 05:18 pm-------30.08-- 87.8----
2024-07-12 05:12 pm-------30.08-- 88.0----
2024-07-12 05:06 pm-------30.08-- 88.0----
2024-07-12 05:00 pm-------30.08-0.03 87.8 88.0----
2024-07-12 04:54 pm-------30.08- 87.3 88.0----
2024-07-12 04:48 pm-------30.08- 86.7 88.0----
2024-07-12 04:42 pm-------30.08- 85.6 88.2----
2024-07-12 04:36 pm-------30.08- 85.8 88.2----
2024-07-12 04:30 pm-------30.08- 85.5 88.2----
2024-07-12 04:24 pm-------30.09- 84.2 88.2----
2024-07-12 04:18 pm-------30.09- 84.6 88.2----
2024-07-12 04:12 pm-------30.09- 83.5 88.3----
2024-07-12 04:06 pm-------30.09- 79.5 88.3----
2024-07-12 04:00 pm-------30.09-0.04 78.4 88.3----
2024-07-12 03:54 pm-------30.09- 77.2 88.2----
2024-07-12 03:48 pm-------30.09- 76.5 88.2----
2024-07-12 03:42 pm-------30.09- 75.7 88.2----
2024-07-12 03:36 pm-------30.11- 75.6 88.0----
2024-07-12 03:30 pm-------30.10- 76.6 88.0----
2024-07-12 03:24 pm-------30.10- 80.2 88.0----
2024-07-12 03:18 pm-------30.09- 83.7 88.0----
2024-07-12 03:12 pm-------30.09- 82.6 88.2----
2024-07-12 03:06 pm-------30.09- 84.0 88.2----
2024-07-12 03:00 pm-------30.09-0.04 85.3 88.2----
2024-07-12 02:54 pm-------30.09- 86.2 88.2----
2024-07-12 02:48 pm-------30.10- 86.7 88.2----
2024-07-12 02:42 pm-------30.10- 87.4 88.3----
2024-07-12 02:36 pm-------30.10- 87.8 88.2----
2024-07-12 02:30 pm-------30.10- 87.8 88.2----
2024-07-12 02:24 pm-------30.10- 88.3 88.2----
2024-07-12 02:18 pm-------30.11- 88.3 88.2----
2024-07-12 02:12 pm-------30.11- 88.5 88.2----
2024-07-12 02:06 pm-------30.11- 88.3 88.2----
2024-07-12 02:00 pm-------30.11-0.01 88.2 88.2----
2024-07-12 01:54 pm-------30.11- 88.5 88.3----
2024-07-12 01:48 pm-------30.11- 89.1 88.3----
2024-07-12 01:42 pm-------30.11- 90.0 88.2----
2024-07-12 01:36 pm-------30.12- 89.6 88.2----
2024-07-12 01:30 pm-------30.12- 88.9 88.3----
2024-07-12 01:24 pm-------30.12- 88.5 88.3----
2024-07-12 01:18 pm-------30.12- 88.5 88.3----
2024-07-12 01:12 pm-------30.12- 88.3 88.0----
2024-07-12 01:06 pm-------30.12- 88.9 88.0----
2024-07-12 01:00 pm-------30.13+0.00 88.9 88.2----
2024-07-12 12:54 pm-------30.13- 88.9 88.0----
2024-07-12 12:48 pm-------30.13- 89.1 88.0----
2024-07-12 12:42 pm-------30.13- 88.7 88.0----
2024-07-12 12:36 pm-------30.13- 88.9 88.2----
2024-07-12 12:30 pm-------30.13- 88.7 88.2----
2024-07-12 12:24 pm-------30.13- 88.7 88.2----
2024-07-12 12:18 pm-------30.14- 88.3 88.2----
2024-07-12 12:12 pm-------30.13- 89.2 88.2----
2024-07-12 12:06 pm-------30.13- 89.4 88.2----
2024-07-12 12:00 pm-------30.13+0.01 90.9 88.2----
2024-07-12 11:54 am-------30.13- 91.2 88.0----
2024-07-12 11:48 am-------30.13- 90.1 87.8----
2024-07-12 11:42 am-------30.13- 91.6 87.8----
2024-07-12 11:36 am-------30.13- 92.5 87.8----
2024-07-12 11:30 am-------30.13- 94.8 88.0----
2024-07-12 11:24 am-------30.13- 92.3 88.0----
2024-07-12 11:18 am-------30.12- 92.7 87.8----
2024-07-12 11:12 am-------30.13- 95.5 87.8----
2024-07-12 11:06 am-------30.12- 94.8 87.8----
2024-07-12 11:00 am-------30.12+0.02 94.5 87.8----
2024-07-12 10:54 am-------30.13- 94.3 87.8----